Change the Weather History Date:

Wednesday, March 19, 2014

  Actual Average Record
Temperature  
Mean Temperature 32 °F -  
Max Temperature 34 °F 41 °F 75 °F (1921)
Min Temperature 30 °F 22 °F -16 °F (1923)
Degree Days  
Heating Degree Days 33    
Moisture  
Dew Point 28 °F    
Average Humidity 84    
Maximum Humidity 93    
Minimum Humidity 59    
Precipitation  
Precipitation 0.02 in - - ()
Sea Level Pressure  
Sea Level Pressure 29.73 in    
Wind  
Wind Speed 13 mph (North)    
Max Wind Speed 22 mph    
Max Gust Speed 26 mph    
Visibility 4 miles    
Events Snow    
Averages and records for this station are not official NWS values.
T = Trace of Precipitation, MM = Missing Value Source: NWS Daily Summary

Daily Weather History Graph

Daily Weather History Graph

Search for Another Location

Airport or City:

Trip Planner

Search our weather history database for the weather conditions in past years. The results will help you decide how hot, cold, wet, or windy it might be!

Date:

Astronomy

Mar. 19, 2014 Rise Set
Actual Time 7:05 AM CDT 7:11 PM CDT
Civil Twilight 6:36 AM CDT 7:41 PM CDT
Nautical Twilight 6:02 AM CDT 8:15 PM CDT
Astronomical Twilight 5:27 AM CDT 8:50 PM CDT
Moon 10:39 PM CDT (3/19) 8:24 AM CDT (3/19)
Length of Visible Light 13h 04m
Length of Day
12h 06m
Waning Gibbous, 91% of the Moon is Illuminated
Mar 19
Waning Gibbous
Mar 23
Last Quarter
Mar 30
New
Apr 7
First Quarter
Apr 15
Full

Hourly Weather History & Observations

Time (CDT) Temp. Windchill Dew Point Humidity Pressure Visibility Wind Dir Wind Speed Gust Speed Precip Events Conditions
12:09 AM 32.0 °F 22.1 °F 28.9 °F 88% 29.73 in 1.0 mi East 13.8 mph - 0.00 in Snow Light Snow
12:27 AM 32.0 °F 21.6 °F 28.9 °F 88% 29.72 in 1.0 mi East 15.0 mph 23.0 mph 0.00 in Snow Light Snow
12:36 AM 32.0 °F 21.6 °F 28.9 °F 88% 29.72 in 1.0 mi East 15.0 mph - 0.00 in Snow Light Snow
12:48 AM 32.0 °F 22.1 °F 28.4 °F 87% 29.71 in 1.2 mi East 13.8 mph - 0.00 in Snow Light Snow
12:54 AM 32.0 °F 22.5 °F 28.9 °F 88% 29.75 in 1.5 mi East 12.7 mph - 0.00 in Snow Light Snow
1:09 AM 32.0 °F 22.5 °F 28.9 °F 88% 29.70 in 1.8 mi ENE 12.7 mph - 0.00 in Snow Light Snow
1:54 AM 32.0 °F 22.1 °F 28.9 °F 88% 29.73 in 1.0 mi ENE 13.8 mph - 0.00 in Snow Light Snow
2:15 AM 32.0 °F 22.5 °F 28.9 °F 88% 29.68 in 1.2 mi ENE 12.7 mph - 0.01 in Snow Light Snow
2:39 AM 32.0 °F 23.0 °F 30.0 °F 92% 29.68 in 1.5 mi ENE 11.5 mph - 0.01 in Snow Light Snow
2:47 AM 32.0 °F 22.5 °F 30.0 °F 92% 29.67 in 2.0 mi ENE 12.7 mph - 0.01 in Snow Light Snow
2:54 AM 32.0 °F 23.0 °F 30.0 °F 92% 29.71 in 2.5 mi ENE 11.5 mph - 0.01 in Snow Light Snow
3:01 AM 32.0 °F 23.0 °F 30.0 °F 92% 29.67 in 3.0 mi ENE 11.5 mph - 0.00 in Snow Light Snow
3:52 AM 33.8 °F 25.8 °F 30.2 °F 87% 29.65 in 1.8 mi ENE 10.4 mph - 0.00 in Snow Light Snow
3:53 AM 33.1 °F 24.9 °F 30.0 °F 89% 29.69 in 1.8 mi ENE 10.4 mph - 0.00 in Snow Light Snow
4:23 AM 32.0 °F 23.0 °F 30.0 °F 92% 29.64 in 1.5 mi ENE 11.5 mph - 0.01 in Snow Light Snow
4:49 AM 32.0 °F 24.2 °F 30.2 °F 93% 29.64 in 2.0 mi ENE 9.2 mph - 0.01 in Snow Light Snow
4:54 AM 32.0 °F 24.2 °F 30.0 °F 92% 29.68 in 2.0 mi ENE 9.2 mph - 0.01 in Snow Light Snow
5:07 AM 32.0 °F 24.2 °F 30.0 °F 92% 29.64 in 2.5 mi NE 9.2 mph - 0.00 in   Overcast
5:19 AM 32.0 °F 26.4 °F 30.0 °F 92% 29.64 in 3.0 mi NE 5.8 mph - 0.00 in   Overcast
5:27 AM 32.0 °F 26.4 °F 30.0 °F 92% 29.64 in 3.0 mi NE 5.8 mph - 0.00 in   Overcast
5:52 AM 32.0 °F 24.8 °F 28.4 °F 87% 29.64 in 3.0 mi NNE 8.1 mph - 0.00 in   Overcast
5:54 AM 32.0 °F 24.8 °F 28.9 °F 88% 29.68 in 3.0 mi NNE 8.1 mph - 0.00 in   Overcast
6:01 AM 32.0 °F 25.6 °F 28.9 °F 88% 29.64 in 2.5 mi North 6.9 mph - 0.00 in Snow Light Snow
6:16 AM 32.0 °F 24.8 °F 28.9 °F 88% 29.65 in 3.0 mi North 8.1 mph - 0.00 in   Overcast
6:37 AM 32.0 °F 25.6 °F 28.9 °F 88% 29.66 in 2.0 mi North 6.9 mph - 0.00 in Snow Light Snow
6:54 AM 32.0 °F 24.8 °F 28.9 °F 88% 29.70 in 1.8 mi North 8.1 mph - 0.00 in Snow Light Snow
7:08 AM 32.0 °F 24.8 °F 28.9 °F 88% 29.66 in 1.8 mi North 8.1 mph - 0.00 in Snow Light Snow
7:16 AM 32.0 °F 23.6 °F 28.9 °F 88% 29.66 in 1.2 mi North 10.4 mph - 0.00 in Snow Light Snow
7:23 AM 32.0 °F 24.2 °F 28.9 °F 88% 29.66 in 0.8 mi North 9.2 mph - 0.00 in Snow Light Snow
7:54 AM 30.9 °F 22.8 °F 28.9 °F 92% 29.71 in 1.0 mi North 9.2 mph - 0.00 in Snow Light Snow
8:43 AM 32.0 °F 22.5 °F 28.9 °F 88% 29.67 in 1.2 mi NNW 12.7 mph - 0.00 in Snow Light Snow
8:54 AM 32.0 °F 23.0 °F 28.9 °F 88% 29.71 in 1.2 mi NNW 11.5 mph - 0.00 in Snow Light Snow
9:08 AM 32.0 °F 23.0 °F 28.9 °F 88% 29.67 in 1.5 mi North 11.5 mph - 0.00 in Snow Light Snow
9:35 AM 33.1 °F 23.9 °F 28.9 °F 85% 29.67 in 2.0 mi NNW 12.7 mph - 0.00 in   Overcast
9:54 AM 33.1 °F 23.4 °F 28.9 °F 85% 29.72 in 2.5 mi NNW 13.8 mph - 0.00 in   Overcast
10:06 AM 33.1 °F 23.0 °F 28.9 °F 85% 29.68 in 2.5 mi NNW 15.0 mph - N/A   Overcast
10:15 AM 33.1 °F 24.4 °F 28.9 °F 85% 29.68 in 3.0 mi NNW 11.5 mph - N/A   Overcast
10:36 AM 33.1 °F 23.9 °F 28.9 °F 85% 29.69 in 2.0 mi NW 12.7 mph - 0.00 in Snow Light Snow
10:40 AM 33.1 °F 23.9 °F 28.9 °F 85% 29.69 in 2.0 mi NW 12.7 mph - 0.00 in Snow Light Snow
10:48 AM 33.8 °F 24.8 °F 28.4 °F 81% 29.69 in 1.8 mi NNW 12.7 mph - 0.00 in Snow Light Snow
10:54 AM 33.1 °F 24.4 °F 28.9 °F 85% 29.74 in 1.8 mi NW 11.5 mph - 0.00 in Snow Light Snow
11:01 AM 33.1 °F 23.9 °F 28.9 °F 85% 29.70 in 2.5 mi NW 12.7 mph - 0.00 in Snow Light Snow
11:48 AM 33.8 °F 24.8 °F 28.4 °F 81% 29.70 in 3.0 mi NW 12.7 mph - 0.00 in   Haze
11:54 AM 34.0 °F 24.2 °F 30.0 °F 85% 29.75 in 3.0 mi NW 15.0 mph - 0.00 in Snow Light Snow
12:19 PM 33.1 °F 22.6 °F 28.9 °F 85% 29.71 in 2.5 mi WNW 16.1 mph - 0.00 in Snow Light Snow
12:52 PM 32.0 °F 21.2 °F 26.6 °F 80% 29.72 in 5.0 mi NW 16.1 mph - 0.00 in   Haze
12:54 PM 32.0 °F 21.6 °F 27.0 °F 82% 29.77 in 6.0 mi WNW 15.0 mph - 0.00 in   Haze
1:25 PM 33.1 °F 22.6 °F 27.0 °F 78% 29.73 in 1.8 mi WNW 16.1 mph - 0.00 in Snow Light Snow
1:37 PM 32.0 °F 20.5 °F 27.0 °F 82% 29.73 in 1.5 mi WNW 18.4 mph - 0.00 in Snow Light Snow
1:41 PM 32.0 °F 20.5 °F 27.0 °F 82% 29.73 in 2.0 mi NW 18.4 mph - 0.00 in Snow Light Snow
1:54 PM 32.0 °F 20.1 °F 27.0 °F 82% 29.78 in 2.5 mi NW 19.6 mph - 0.00 in Snow Light Snow
2:00 PM 32.0 °F 19.5 °F 26.1 °F 79% 29.73 in 5.0 mi NW 21.9 mph 26.5 mph 0.00 in Snow Light Snow
2:54 PM 32.0 °F 19.8 °F 25.0 °F 75% 29.79 in 10.0 mi NW 20.7 mph - 0.00 in   Overcast
3:54 PM 32.0 °F 20.5 °F 25.0 °F 75% 29.81 in 10.0 mi NW 18.4 mph - N/A   Overcast
4:54 PM 32.0 °F 20.8 °F 25.0 °F 75% 29.83 in 10.0 mi NW 17.3 mph - N/A   Overcast
5:54 PM 32.0 °F 21.2 °F 24.1 °F 73% 29.86 in 9.0 mi WNW 16.1 mph - N/A   Overcast
6:54 PM 32.0 °F 21.6 °F 24.1 °F 73% 29.89 in 10.0 mi WNW 15.0 mph - N/A   Overcast
7:54 PM 32.0 °F 20.8 °F 23.0 °F 69% 29.91 in 10.0 mi WNW 17.3 mph 24.2 mph N/A   Overcast
8:15 PM 32.0 °F 22.1 °F 23.0 °F 69% 29.87 in 10.0 mi WNW 13.8 mph - N/A   Overcast
8:54 PM 32.0 °F 21.6 °F 21.9 °F 66% 29.93 in 10.0 mi WNW 15.0 mph - N/A   Overcast
9:54 PM 32.0 °F 20.8 °F 19.0 °F 59% 29.94 in 10.0 mi WNW 17.3 mph 24.2 mph N/A   Overcast
10:54 PM 30.9 °F 23.5 °F 21.0 °F 67% 29.95 in 10.0 mi West 8.1 mph - N/A   Overcast
11:54 PM 30.9 °F 23.5 °F 21.0 °F 67% 29.94 in 10.0 mi WNW 8.1 mph - N/A   Overcast